FW3572 Weather Reports


time (UTC)temp
C
wind
direction
speed
KPH
gust
KPH
rain 1hr
cm
rain 24hr
cm
rain mn
cm
humidity
%
barometer
mb
20260902213022 28 119 3.2 11.3 0.00 0.00 0.00 100 1015.5
20260902212508 28 110 3.2 11.3 0.00 0.00 0.00 100 1015.5
20260902212007 28 152 4.8 11.3 0.00 0.00 0.00 100 1015.4
20260902211507 28 146 3.2 11.3 0.00 0.00 0.00 100 1015.4
20260902211006 28 124 3.2 12.9 0.00 0.00 0.00 100 1015.3
20260902210506 28 117 6.4 12.9 0.00 0.00 0.00 100 1015.4
20260902210014 28 109 3.2 11.3 0.00 0.00 0.00 100 1015.4
20260902205505 28 148 1.6 12.9 0.00 0.00 0.00 100 1015.5
20260902205007 28 153 4.8 11.3 0.00 0.00 0.00 100 1015.5
20260902204505 28 122 3.2 12.9 0.00 0.00 0.00 100 1015.7
20260902204005 29 106 3.2 12.9 0.00 0.00 0.00 100 1015.7
20260902203505 29 121 6.4 12.9 0.00 0.00 0.00 100 1015.7
20260902203005 29 153 6.4 12.9 0.00 0.00 0.00 100 1015.7
20260902202504 29 116 4.8 14.5 0.00 0.00 0.00 100 1015.6
20260902202003 29 136 3.2 14.5 0.00 0.00 0.00 100 1015.6
20260902201504 29 89 3.2 12.9 0.00 0.00 0.00 100 1015.6
20260902201003 29 113 3.2 12.9 0.00 0.00 0.00 100 1015.5
20260902200503 29 90 4.8 14.5 0.00 0.00 0.00 100 1015.6
20260902200006 29 76 3.2 17.7 0.00 0.00 0.00 100 1015.7
20260902195502 29 111 4.8 17.7 0.00 0.00 0.00 100 1015.7
20260902195001 28 82 4.8 12.9 0.00 0.00 0.00 100 1015.8
20260902194502 28 131 1.6 14.5 0.00 0.00 0.00 100 1015.9
20260902194007 28 128 3.2 16.1 0.00 0.00 0.00 100 1015.9
20260902193502 28 138 4.8 16.1 0.00 0.00 0.00 100 1016.0
20260902193101 29 107 4.8 11.3 0.00 0.00 0.00 100 1016.0
20260902192500 29 135 3.2 12.9 0.00 0.00 0.00 100 1016.1
20260902192059 29 151 6.4 12.9 0.00 0.00 0.00 100 1016.2
20260902191600 29 126 3.2 14.5 0.00 0.00 0.00 100 1016.3
20260902191059 29 132 6.4 14.5 0.00 0.00 0.00 100 1016.3
20260902190559 30 113 3.2 12.9 0.00 0.00 0.00 100 1016.3
20260902190058 29 125 4.8 14.5 0.00 0.00 0.00 100 1016.3
20260902185557 29 128 4.8 16.1 0.00 0.00 0.00 100 1016.4
20260902185057 29 169 6.4 16.1 0.00 0.00 0.00 100 1016.4
20260902184601 29 131 1.6 11.3 0.00 0.00 0.00 100 1016.4
20260902184057 29 153 3.2 11.3 0.00 0.00 0.00 100 1016.4
20260902183557 28 132 3.2 9.7 0.00 0.00 0.00 100 1016.5
20260902183110 28 119 1.6 12.9 0.00 0.00 0.00 100 1016.5
20260902182556 28 113 1.6 12.9 0.00 0.00 0.00 100 1016.5
20260902182055 28 116 3.2 14.5 0.00 0.00 0.00 100 1016.6
20260902181555 28 112 4.8 14.5 0.00 0.00 0.00 100 1016.7
20260902181055 28 108 1.6 12.9 0.00 0.00 0.00 100 1016.7
20260902180554 28 130 4.8 14.5 0.00 0.00 0.00 100 1016.7
20260902180055 27 53 4.8 14.5 0.00 0.00 0.00 100 1016.8
20260902175557 28 90 3.2 12.9 0.00 0.00 0.00 100 1016.8
20260902175054 28 130 3.2 11.3 0.00 0.00 0.00 100 1016.8
20260902174604 28 107 0.0 8.0 0.00 0.00 0.00 100 1016.8
20260902174058 28 112 1.6 6.4 0.00 0.00 0.00 100 1016.8
20260902173554 28 113 1.6 9.7 0.00 0.00 0.00 100 1016.9
20260902173053 28 119 1.6 9.7 0.00 0.00 0.00 100 1016.9
20260902172554 28 124 1.6 9.7 0.00 0.00 0.00 100 1017.0
20260902172053 28 123 0.0 6.4 0.00 0.00 0.00 100 1017.0
20260902171601 28 79 0.0 6.4 0.00 0.00 0.00 100 1017.1
20260902171054 28 118 1.6 6.4 0.00 0.00 0.00 100 1017.1
20260902170552 28 109 0.0 6.4 0.00 0.00 0.00 100 1017.2
20260902170052 28 117 1.6 6.4 0.00 0.00 0.00 100 1017.2
20260902165552 28 115 1.6 6.4 0.00 0.00 0.00 100 1017.3
20260902165052 28 88 0.0 4.8 0.00 0.00 0.00 100 1017.3
20260902164552 28 74 0.0 6.4 0.00 0.00 0.00 100 1017.3
20260902164051 28 42 0.0 6.4 0.00 0.00 0.00 100 1017.3
20260902163551 28 59 0.0 4.8 0.00 0.00 0.00 100 1017.5
20260902163105 28 80 0.0 8.0 0.00 0.00 0.00 100 1017.5
20260902162553 29 63 1.6 9.7 0.00 0.00 0.00 100 1017.7
20260902162050 29 355 3.2 9.7 0.00 0.00 0.00 100 1017.8
20260902161550 29 15 1.6 8.0 0.00 0.00 0.00 100 1017.9
20260902161052 29 40 1.6 8.0 0.00 0.00 0.00 100 1017.7
20260902160549 29 152 1.6 8.0 0.00 0.00 0.00 100 1017.8
20260902160049 29 97 1.6 8.0 0.00 0.00 0.00 100 1017.7
20260902155549 29 5 1.6 8.0 0.00 0.00 0.00 100 1017.7
20260902155049 29 117 0.0 6.4 0.00 0.00 0.00 100 1017.9
20260902154549 29 94 0.0 6.4 0.00 0.00 0.00 100 1018.0
20260902154048 29 18 0.0 4.8 0.00 0.00 0.00 100 1018.0
20260902153547 29 25 1.6 6.4 0.00 0.00 0.00 100 1018.1
20260902153045 29 26 1.6 4.8 0.00 0.00 0.00 100 1018.1
20260902152543 29 113 0.0 3.2 0.00 0.00 0.00 100 1018.1
20260902152041 28 114 0.0 3.2 0.00 0.00 0.00 100 1018.1
20260902151551 28 71 0.0 3.2 0.00 0.00 0.00 100 1017.9
20260902151044 28 346 0.0 3.2 0.00 0.00 0.00 100 1017.7
20260902150541 28 346 0.0 3.2 0.00 0.00 0.00 100 1017.6
20260902150043 28 340 0.0 6.4 0.00 0.00 0.00 100 1017.6
20260902145540 28 355 0.0 6.4 0.00 0.00 0.00 100 1017.7
20260902145038 28 360 1.6 6.4 0.00 0.00 0.00 100 1017.8
20260902144543 28 5 1.6 6.4 0.00 0.00 0.00 100 1017.9
20260902144037 28 341 1.6 6.4 0.00 0.00 0.00 100 1017.8
20260902143540 28 5 0.0 4.8 0.00 0.00 0.00 100 1017.8
20260902143037 28 9 0.0 4.8 0.00 0.00 0.00 100 1017.6
20260902142537 28 355 0.0 4.8 0.00 0.00 0.00 100 1017.7
20260902142035 28 360 0.0 4.8 0.00 0.00 0.00 100 1017.6
20260902141538 27 355 0.0 6.4 0.00 0.00 0.00 100 1017.7
20260902141036 27 347 1.6 6.4 0.00 0.00 0.00 100 1017.7
20260902140536 27 5 3.2 6.4 0.00 0.00 0.00 100 1017.6
20260902140038 27 9 3.2 6.4 0.00 0.00 0.00 100 1017.8
20260902135535 28 328 0.0 3.2 0.00 0.00 0.00 100 1017.7
20260902135035 28 327 0.0 3.2 0.00 0.00 0.00 100 1017.6
20260902134534 28 313 0.0 3.2 0.00 0.00 0.00 100 1017.6
20260902134035 28 314 0.0 3.2 0.00 0.00 0.00 100 1017.5
20260902133536 28 336 0.0 4.8 0.00 0.00 0.00 100 1017.5
20260902133034 28 336 0.0 4.8 0.00 0.00 0.00 100 1017.4
20260902132533 28 344 0.0 4.8 0.00 0.00 0.00 100 1017.6
20260902132033 28 346 1.6 6.4 0.00 0.00 0.00 100 1017.5
20260902131533 28 348 0.0 6.4 0.00 0.00 0.00 100 1017.6
20260902131032 28 317 0.0 6.4 0.00 0.00 0.00 100 1017.5
20260902130532 28 345 1.6 6.4 0.00 0.00 0.00 100 1017.5
20260902130032 27 277 0.0 0.0 0.00 0.00 0.00 100 1017.5
20260902125529 27 290 0.0 0.0 0.00 0.00 0.00 100 1017.4
20260902125033 27 302 0.0 0.0 0.00 0.00 0.00 100 1017.4
20260902124527 27 299 0.0 0.0 0.00 0.00 0.00 100 1017.4
20260902124027 27 313 0.0 0.0 0.00 0.00 0.00 100 1017.3
20260902123526 27 313 0.0 0.0 0.00 0.00 0.00 100 1017.4
20260902123029 27 313 0.0 0.0 0.00 0.00 0.00 100 1017.3
20260902122525 26 313 0.0 0.0 0.00 0.00 0.00 100 1017.3
20260902122023 26 313 0.0 3.2 0.00 0.00 0.00 100 1017.2
20260902121522 26 313 0.0 3.2 0.00 0.00 0.00 100 1017.1
20260902121023 26 315 0.0 1.6 0.00 0.00 0.00 100 1017.0
20260902120523 26 315 0.0 0.0 0.00 0.00 0.00 100 1017.0
20260902120022 26 315 0.0 0.0 0.00 0.00 0.00 100 1017.0
20260902115522 26 315 0.0 0.0 0.00 0.00 0.00 100 1017.0
20260902115022 26 315 0.0 0.0 0.00 0.00 0.00 100 1016.9
20260902114522 25 315 0.0 0.0 0.00 0.00 0.00 100 1016.9
20260902114021 25 315 0.0 0.0 0.00 0.00 0.00 100 1016.9
20260902113521 25 315 0.0 0.0 0.00 0.00 0.00 100 1016.9
20260902113022 25 315 0.0 0.0 0.00 0.00 0.00 100 1016.9
20260902112522 25 315 0.0 0.0 0.00 0.00 0.00 100 1016.9
20260902112026 25 315 0.0 0.0 0.00 0.00 0.00 100 1016.9
20260902111533 25 315 0.0 0.0 0.00 0.00 0.00 100 1016.9
20260902111023 25 315 0.0 0.0 0.00 0.00 0.00 100 1017.0
20260902110520 25 315 0.0 0.0 0.00 0.00 0.00 100 1016.9
20260902110021 25 315 0.0 0.0 0.00 0.00 0.00 100 1016.9
20260902105520 25 315 0.0 3.2 0.00 0.00 0.00 100 1016.8
20260902105020 25 315 0.0 3.2 0.00 0.00 0.00 100 1016.9
20260902104520 25 315 1.6 3.2 0.00 0.00 0.00 100 1016.7
20260902104020 25 308 0.0 3.2 0.00 0.00 0.00 100 1016.7
20260902103520 25 306 0.0 3.2 0.00 0.00 0.00 100 1016.6
20260902103020 25 306 0.0 6.4 0.00 0.00 0.00 100 1016.5
20260902102520 25 307 0.0 6.4 0.00 0.00 0.00 100 1016.4
20260902102019 25 326 0.0 6.4 0.00 0.00 0.00 100 1016.3
20260902101521 25 307 1.6 4.8 0.00 0.00 0.00 100 1016.3
20260902101025 25 316 0.0 4.8 0.00 0.00 0.00 100 1016.3
20260902100518 25 302 0.0 3.2 0.00 0.00 0.00 100 1016.3
20260902100020 25 302 0.0 0.0 0.00 0.00 0.00 100 1016.5
20260902095519 25 302 0.0 0.0 0.00 0.00 0.00 100 1016.5
20260902095018 25 302 0.0 0.0 0.00 0.00 0.00 100 1016.5
20260902094518 25 302 0.0 0.0 0.00 0.00 0.00 100 1016.3
20260902094018 25 302 0.0 0.0 0.00 0.00 0.00 100 1016.3
20260902093519 25 302 0.0 0.0 0.00 0.00 0.00 100 1016.3
20260902093017 25 302 0.0 0.0 0.00 0.00 0.00 100 1016.3
20260902092517 25 302 0.0 0.0 0.00 0.00 0.00 100 1016.3
20260902092021 25 302 0.0 0.0 0.00 0.00 0.00 100 1016.2
20260902091517 25 302 0.0 0.0 0.00 0.00 0.00 100 1016.2
20260902091018 25 302 0.0 0.0 0.00 0.00 0.00 100 1016.3
20260902090516 25 302 0.0 0.0 0.00 0.00 0.00 100 1016.4
20260902090016 25 302 0.0 0.0 0.00 0.00 0.00 100 1016.4
20260902085516 25 302 0.0 0.0 0.00 0.00 0.00 100 1016.3
20260902085018 25 302 0.0 0.0 0.00 0.00 0.00 100 1016.3
20260902084515 25 302 0.0 0.0 0.00 0.00 0.00 100 1016.2
20260902084016 25 300 0.0 3.2 0.00 0.00 0.00 100 1016.2
20260902083515 25 301 0.0 4.8 0.00 0.00 0.00 100 1016.1
20260902083015 25 292 1.6 4.8 0.00 0.00 0.00 100 1016.0
20260902082515 25 308 0.0 3.2 0.00 0.00 0.00 100 1016.0
20260902082014 25 309 0.0 4.8 0.00 0.00 0.00 100 1016.1
20260902081513 25 309 0.0 4.8 0.00 0.00 0.00 100 1016.1
20260902081013 25 317 0.0 0.0 0.00 0.00 0.00 100 1016.0
20260902080513 25 317 0.0 0.0 0.00 0.00 0.00 100 1016.2
20260902080013 25 317 0.0 0.0 0.00 0.00 0.00 100 1016.2
20260902075514 25 317 0.0 0.0 0.00 0.00 0.00 100 1016.2
20260902075013 25 323 0.0 0.0 0.00 0.00 0.00 100 1016.0
20260902074512 25 313 0.0 0.0 0.00 0.00 0.00 100 1016.0
20260902074012 25 313 0.0 0.0 0.00 0.00 0.00 100 1016.1
20260902073511 25 312 0.0 0.0 0.00 0.00 0.00 100 1016.2
20260902073011 25 309 0.0 0.0 0.00 0.00 0.00 100 1016.1
20260902072511 25 308 0.0 0.0 0.00 0.00 0.00 100 1016.2
20260902072010 25 306 0.0 0.0 0.00 0.00 0.00 100 1016.1
20260902071516 25 306 0.0 0.0 0.00 0.00 0.00 100 1016.2
20260902071009 25 306 0.0 0.0 0.00 0.00 0.00 100 1016.3
20260902070510 25 307 0.0 0.0 0.00 0.00 0.00 100 1016.3
20260902070010 26 307 0.0 0.0 0.00 0.00 0.00 100 1016.3
20260902065510 25 308 0.0 0.0 0.00 0.00 0.00 100 1016.3
20260902065009 25 290 0.0 0.0 0.00 0.00 0.00 100 1016.3
20260902064510 25 289 0.0 0.0 0.00 0.00 0.00 100 1016.3
20260902064007 25 288 0.0 0.0 0.00 0.00 0.00 100 1016.3
20260902063507 26 289 0.0 0.0 0.00 0.00 0.00 100 1016.4
20260902063007 25 289 0.0 0.0 0.00 0.00 0.00 100 1016.5
20260902062507 26 325 0.0 0.0 0.00 0.00 0.00 100 1016.5
20260902062005 26 325 0.0 0.0 0.00 0.00 0.00 100 1016.4
20260902061505 26 325 0.0 0.0 0.00 0.00 0.00 100 1016.5
20260902061008 26 325 0.0 0.0 0.00 0.00 0.00 100 1016.6
20260902060505 26 325 0.0 0.0 0.00 0.00 0.00 100 1016.6
20260902060005 26 327 0.0 0.0 0.00 0.00 0.00 100 1016.7
20260902055504 26 327 0.0 0.0 0.00 0.00 0.00 100 1016.6
20260902055004 26 327 0.0 0.0 0.00 0.00 0.00 100 1016.5
20260902054504 26 327 0.0 0.0 0.00 0.03 0.00 100 1016.5
20260902054003 26 328 0.0 0.0 0.00 0.03 0.00 100 1016.5
20260902053503 26 328 0.0 0.0 0.00 0.03 0.00 100 1016.7
20260902053004 26 328 0.0 0.0 0.00 0.03 0.00 100 1016.6
20260902052504 26 329 0.0 0.0 0.00 0.03 0.00 100 1016.6
20260902052003 26 329 0.0 0.0 0.00 0.03 0.00 100 1016.5
20260902051502 26 329 0.0 0.0 0.00 0.03 0.00 100 1016.6
20260902051004 26 329 0.0 0.0 0.00 0.03 0.00 100 1016.6
20260902050503 26 329 0.0 0.0 0.00 0.03 0.00 100 1016.7
20260902050107 26 329 0.0 0.0 0.00 0.03 0.00 100 1016.8
20260902050001 26 329 0.0 0.0 0.00 0.03 0.00 100 1016.8
20260902045559 26 329 0.0 0.0 0.00 0.03 0.00 100 1016.7
20260902045101 26 329 0.0 0.0 0.00 0.03 0.00 100 1016.9
20260902044602 26 329 0.0 0.0 0.00 0.03 0.00 100 1016.9
20260902044100 26 329 0.0 0.0 0.00 0.03 0.00 100 1016.8
20260902043559 26 329 0.0 0.0 0.00 0.03 0.00 100 1016.9
20260902043059 26 329 0.0 0.0 0.00 0.03 0.00 100 1016.8
20260902042601 26 329 0.0 0.0 0.00 0.03 0.00 100 1016.9
20260902042058 26 329 0.0 0.0 0.00 0.03 0.00 100 1016.9
20260902041559 26 328 0.0 0.0 0.00 0.03 0.00 100 1016.8
20260902041057 26 329 0.0 3.2 0.00 0.03 0.00 100 1016.9
20260902040601 26 329 0.0 4.8 0.00 0.03 0.00 100 1016.8
20260902040057 26 329 0.0 4.8 0.00 0.03 0.00 100 1016.9
20260902035556 26 355 0.0 0.0 0.00 0.03 0.00 100 1017.0
20260902035055 26 355 0.0 0.0 0.00 0.03 0.00 100 1017.1
20260902034557 26 355 0.0 0.0 0.00 0.03 0.03 100 1017.2
20260902034055 26 355 0.0 0.0 0.00 0.03 0.03 100 1017.2
20260902033556 26 355 0.0 0.0 0.00 0.03 0.03 100 1017.3
20260902033056 26 355 0.0 0.0 0.00 0.03 0.03 100 1017.4
20260902032555 26 355 0.0 0.0 0.00 0.03 0.03 100 1017.2
20260902032054 26 355 0.0 0.0 0.00 0.03 0.03 100 1017.2
20260902031605 26 355 0.0 0.0 0.00 0.03 0.03 100 1017.3
20260902031054 26 355 0.0 0.0 0.00 0.03 0.03 100 1017.4
20260902030554 26 355 0.0 0.0 0.00 0.03 0.03 100 1017.5
20260902030053 26 355 0.0 3.2 0.00 0.03 0.03 100 1017.5
20260902025553 26 355 0.0 3.2 0.00 0.03 0.03 100 1017.6
20260902025054 26 355 0.0 0.0 0.00 0.03 0.03 100 1017.5
20260902024558 26 355 0.0 3.2 0.00 0.03 0.03 100 1017.5
20260902024053 26 355 0.0 3.2 0.00 0.03 0.03 100 1017.6
20260902023552 26 355 0.0 0.0 0.00 0.03 0.03 100 1017.6
20260902023055 26 355 0.0 1.6 0.00 0.03 0.03 100 1017.6
20260902022552 26 355 0.0 1.6 0.00 0.03 0.03 100 1017.6
20260902022051 26 355 0.0 0.0 0.00 0.03 0.03 100 1017.6
20260902021606 26 355 0.0 1.6 0.00 0.03 0.03 100 1017.7
20260902021055 26 355 0.0 1.6 0.00 0.03 0.03 100 1017.5
20260902020552 26 355 0.0 0.0 0.00 0.03 0.03 100 1017.4
20260902015554 26 355 0.0 1.6 0.00 0.03 0.03 100 1017.4
20260902015053 26 355 0.0 0.0 0.00 0.03 0.03 100 1017.4
20260902014551 26 355 0.0 1.6 0.00 0.03 0.03 100 1017.3
20260902014051 26 355 0.0 1.6 0.00 0.03 0.03 100 1017.4
20260902013551 26 355 0.0 3.2 0.00 0.03 0.03 100 1017.4
20260902013051 26 355 0.0 4.8 0.00 0.03 0.03 100 1017.4
20260902012550 26 355 0.0 4.8 0.00 0.03 0.03 100 1017.3
20260902012050 26 355 1.6 4.8 0.00 0.03 0.03 100 1017.3
20260902011550 26 355 0.0 4.8 0.00 0.03 0.03 100 1017.1
20260902011050 26 355 1.6 4.8 0.00 0.03 0.03 100 1017.0
20260902010549 26 347 0.0 4.8 0.00 0.03 0.03 100 1017.0
20260902010049 26 345 0.0 3.2 0.00 0.03 0.03 100 1016.9
20260902005549 26 334 0.0 4.8 0.00 0.03 0.03 100 1016.9
20260902005050 26 327 0.0 6.4 0.00 0.03 0.03 100 1016.8
20260902004549 26 360 0.0 6.4 0.00 0.03 0.03 100 1016.8
20260902004048 26 360 1.6 8.0 0.00 0.03 0.03 100 1016.8
20260902003547 26 355 3.2 8.0 0.00 0.03 0.03 100 1016.9
20260902003048 27 346 1.6 6.4 0.00 0.03 0.03 100 1017.0
20260902002547 27 360 3.2 6.4 0.00 0.03 0.03 100 1017.0
20260902002050 27 323 0.0 6.4 0.00 0.03 0.03 100 1017.0
20260902001550 27 355 1.6 4.8 0.00 0.03 0.03 100 1017.1
20260902001048 27 325 1.6 4.8 0.00 0.03 0.03 100 1017.1
20260902000550 27 134 0.0 1.6 0.00 0.03 0.03 100 1017.0
20260902000047 27 134 0.0 1.6 0.00 0.03 0.03 100 1017.0
20260901235547 27 134 0.0 1.6 0.00 0.03 0.03 100 1017.0
20260901235045 27 134 0.0 1.6 0.00 0.03 0.03 100 1017.0
20260901234548 27 134 0.0 0.0 0.00 0.03 0.03 100 1017.0
20260901234047 27 134 0.0 1.6 0.00 0.03 0.03 100 1016.9
20260901233546 27 134 0.0 1.6 0.00 0.03 0.03 100 1016.9
20260901233049 27 134 0.0 1.6 0.00 0.03 0.03 100 1016.9
20260901232545 27 132 0.0 6.4 0.00 0.03 0.03 100 1016.9
20260901232045 27 132 1.6 6.4 0.00 0.03 0.03 100 1016.9
20260901231546 27 133 1.6 6.4 0.00 0.03 0.03 100 1016.8
20260901231045 27 132 3.2 9.7 0.00 0.03 0.03 100 1016.9
20260901230545 27 134 3.2 9.7 0.00 0.03 0.03 100 1016.9
20260901230100 27 130 4.8 9.7 0.00 0.03 0.03 100 1016.7
20260901225544 27 123 0.0 14.5 0.00 0.03 0.03 100 1016.6
20260901225044 28 106 1.6 11.3 0.00 0.03 0.03 100 1016.7
20260901224545 28 119 3.2 11.3 0.00 0.03 0.03 100 1016.7
20260901224044 28 128 0.0 9.7 0.00 0.03 0.03 100 1016.6
20260901223544 28 57 0.0 6.4 0.00 0.03 0.03 100 1016.6
20260901223053 28 30 1.6 6.4 0.00 0.03 0.03 100 1016.6
20260901222543 28 9 0.0 8.0 0.00 0.03 0.03 100 1016.6
20260901222046 28 5 0.0 8.0 0.00 0.03 0.03 100 1016.7
20260901221544 28 50 1.6 8.0 0.00 0.03 0.03 100 1016.7
20260901221043 28 360 1.6 6.4 0.00 0.03 0.03 100 1016.7
20260901220542 28 110 0.0 6.4 0.00 0.03 0.03 100 1016.7
20260901220104 28 63 0.0 8.0 0.00 0.03 0.03 100 1016.7
20260901215543 28 46 0.0 12.9 0.00 0.03 0.03 100 1016.5
20260901215043 28 107 1.6 12.9 0.00 0.03 0.03 100 1016.5
20260901214541 28 92 1.6 11.3 0.00 0.03 0.03 100 1016.4
20260901214044 29 31 3.2 19.3 0.00 0.03 0.03 100 1016.3
20260901213543 29 360 4.8 19.3 0.00 0.03 0.03 100 1016.2